Location: Calvera
(42.3882°N, 0.6137°E)
Time: 19:11:22
(UTC+00:00)

BREEZE-M DEB (TANK) - Pass Details

Date: 28 October 2020
Orbit: 305 x 13930 km, 46.1° (Epoch: 22 November)

Event Time Altitude Azimuth Distance (km) Brightness Sun altitude
Exits shadow 05:24:37 14° 235° (SW) 1,101 3.4 -12.0°
Maximum altitude 05:24:55 15° 226° (SW) 1,061 3.4 -11.9°
Drops below altitude 10° 05:26:25 10° 184° (S) 1,220 4.1 -11.6°
Sets 05:28:31 0° 156° (SSE) 2,044 5.7 -11.2°
